Weather History for Arbor Vitae, WI

Change the Weather History Date:

Friday, March 15, 2013

  Actual Average Record
Temperature  
Mean Temperature 24 °F -  
Max Temperature 32 °F 36 °F 62 °F (2012)
Min Temperature 17 °F 12 °F -32 °F (1906)
Degree Days  
Heating Degree Days 40    
Moisture  
Dew Point 20 °F    
Average Humidity 73    
Maximum Humidity 93    
Minimum Humidity 51    
Precipitation  
Precipitation 0.02 in - - ()
Sea Level Pressure  
Sea Level Pressure 29.89 in    
Wind  
Wind Speed 7 mph (North)    
Max Wind Speed 13 mph    
Max Gust Speed 17 mph    
Visibility 8 miles    
Events Snow    
Averages and records for this station are not official NWS values.
T = Trace of Precipitation, MM = Missing Value Source: NWS Daily Summary

Daily Weather History Graph

Daily Weather History Graph

Search for Another Location

Airport:

Trip Planner

Search our weather history database for the weather conditions in past years. The results will help you decide how hot, cold, wet, or windy it might be!

Date:

Astronomy

Mar. 15, 2013 Rise Set
Actual Time 7:11 AM CDT 7:05 PM CDT
Civil Twilight 6:41 AM CDT 7:34 PM CDT
Nautical Twilight 6:06 AM CDT 8:09 PM CDT
Astronomical Twilight 5:31 AM CDT 8:45 PM CDT
Moon 8:47 AM CDT (3/15) 11:34 PM CDT (3/15)
Length of Visible Light 12h 53m
Length of Day
11h 54m
Waxing Crescent, 15% of the Moon is Illuminated
Mar 15
Waxing Crescent
Mar 19
First Quarter
Mar 27
Full
Apr 2
Last Quarter
Apr 10
New

Hourly Weather History & Observations

Time (CDT) Temp. Windchill Dew Point Humidity Pressure Visibility Wind Dir Wind Speed Gust Speed Precip Events Conditions
12:15 AM 32.0 °F 25.6 °F 26.6 °F 80% 29.93 in 10.0 mi West 6.9 mph - N/A   Overcast
12:35 AM 32.0 °F 26.4 °F 26.6 °F 80% 29.93 in 10.0 mi West 5.8 mph - N/A   Overcast
12:55 AM 32.0 °F 25.6 °F 26.6 °F 80% 29.91 in 10.0 mi West 6.9 mph - N/A   Overcast
1:15 AM 32.0 °F 27.5 °F 26.6 °F 80% 29.91 in 10.0 mi WNW 4.6 mph - N/A   Overcast
1:35 AM 32.0 °F - 26.6 °F 80% 29.91 in 10.0 mi Calm Calm - N/A   Overcast
2:15 AM 32.0 °F 28.7 °F 26.6 °F 80% 29.90 in 7.0 mi WNW 3.5 mph - N/A   Overcast
2:35 AM 32.0 °F 26.4 °F 28.4 °F 87% 29.89 in 7.0 mi West 5.8 mph - N/A   Overcast
2:55 AM 32.0 °F 27.5 °F 28.4 °F 87% 29.89 in 7.0 mi WNW 4.6 mph - N/A   Overcast
3:15 AM 32.0 °F 27.5 °F 28.4 °F 87% 29.88 in 7.0 mi WNW 4.6 mph - N/A   Overcast
3:35 AM 32.0 °F 27.5 °F 28.4 °F 87% 29.88 in 7.0 mi NW 4.6 mph - N/A   Overcast
3:55 AM 32.0 °F 28.7 °F 28.4 °F 87% 29.87 in 7.0 mi NW 3.5 mph - N/A   Overcast
4:15 AM 32.0 °F 27.5 °F 28.4 °F 87% 29.86 in 7.0 mi NW 4.6 mph - N/A   Overcast
4:35 AM 32.0 °F 28.7 °F 28.4 °F 87% 29.86 in 7.0 mi NW 3.5 mph - N/A   Overcast
4:55 AM 32.0 °F 27.5 °F 28.4 °F 87% 29.86 in 7.0 mi NW 4.6 mph - N/A   Overcast
5:15 AM 32.0 °F 25.6 °F 28.4 °F 87% 29.86 in 7.0 mi NNW 6.9 mph - N/A   Overcast
5:35 AM 32.0 °F 25.6 °F 28.4 °F 87% 29.87 in 7.0 mi NNW 6.9 mph - N/A   Overcast
5:55 AM 32.0 °F 25.6 °F 28.4 °F 87% 29.87 in 7.0 mi NNW 6.9 mph - N/A   Overcast
6:15 AM 32.0 °F 24.8 °F 28.4 °F 87% 29.87 in 7.0 mi North 8.1 mph - N/A   Overcast
6:35 AM 32.0 °F 24.2 °F 28.4 °F 87% 29.89 in 10.0 mi North 9.2 mph - N/A   Overcast
6:55 AM 30.2 °F 21.9 °F 26.6 °F 86% 29.90 in 10.0 mi North 9.2 mph - N/A   Overcast
7:15 AM 30.2 °F 20.8 °F 26.6 °F 86% 29.91 in 10.0 mi North 11.5 mph - N/A   Overcast
7:35 AM 28.4 °F 18.0 °F 26.6 °F 93% 29.91 in 10.0 mi North 12.7 mph - N/A   Overcast
7:55 AM 28.4 °F 18.0 °F 23.0 °F 80% 29.92 in 10.0 mi North 12.7 mph - N/A   Overcast
8:15 AM 28.4 °F 19.7 °F 21.2 °F 74% 29.92 in 10.0 mi NNE 9.2 mph - N/A   Overcast
8:35 AM 28.4 °F 19.1 °F 21.2 °F 74% 29.92 in 10.0 mi NE 10.4 mph 17.3 mph N/A   Overcast
8:55 AM 28.4 °F 19.7 °F 21.2 °F 74% 29.92 in 10.0 mi NNE 9.2 mph 17.3 mph N/A   Overcast
9:15 AM 28.4 °F 21.2 °F 21.2 °F 74% 29.92 in 10.0 mi NNE 6.9 mph - N/A   Overcast
9:35 AM 26.6 °F 17.5 °F 19.4 °F 74% 29.92 in 10.0 mi NNE 9.2 mph - N/A   Overcast
10:55 AM 26.6 °F 17.5 °F 19.4 °F 74% 29.93 in 10.0 mi North 9.2 mph 17.3 mph N/A   Overcast
11:15 AM 28.4 °F 21.2 °F 19.4 °F 69% 29.92 in 10.0 mi NNE 6.9 mph 17.3 mph N/A   Overcast
11:35 AM 28.4 °F 19.1 °F 19.4 °F 69% 29.92 in 10.0 mi North 10.4 mph - N/A   Overcast
11:55 AM 28.4 °F 19.1 °F 17.6 °F 64% 29.92 in 10.0 mi North 10.4 mph - N/A   Overcast
12:15 PM 28.4 °F 20.4 °F 17.6 °F 64% 29.92 in 10.0 mi North 8.1 mph - N/A   Overcast
12:35 PM 28.4 °F 19.7 °F 17.6 °F 64% 29.91 in 10.0 mi North 9.2 mph - N/A   Mostly Cloudy
12:55 PM 28.4 °F 19.7 °F 17.6 °F 64% 29.91 in 10.0 mi North 9.2 mph - N/A   Scattered Clouds
1:15 PM 30.2 °F 25.4 °F 17.6 °F 60% 29.92 in 10.0 mi North 4.6 mph 17.3 mph N/A   Mostly Cloudy
1:35 PM 28.4 °F 19.7 °F 17.6 °F 64% 29.91 in 10.0 mi North 9.2 mph - N/A   Mostly Cloudy
1:55 PM 30.2 °F 22.6 °F 17.6 °F 60% 29.91 in 10.0 mi North 8.1 mph - N/A   Mostly Cloudy
2:15 PM 30.2 °F 24.3 °F 15.8 °F 55% 29.90 in 10.0 mi North 5.8 mph 17.3 mph N/A   Mostly Cloudy
2:35 PM 30.2 °F 22.6 °F 14.0 °F 51% 29.89 in 10.0 mi ENE 8.1 mph - N/A   Scattered Clouds
2:55 PM 30.2 °F 25.4 °F 14.0 °F 51% 29.88 in 10.0 mi ENE 4.6 mph - N/A   Mostly Cloudy
3:15 PM 30.2 °F 23.4 °F 14.0 °F 51% 29.88 in 10.0 mi NE 6.9 mph - N/A   Mostly Cloudy
3:35 PM 30.2 °F - 14.0 °F 51% 29.88 in 10.0 mi Calm Calm - N/A   Mostly Cloudy
3:55 PM 30.2 °F 24.3 °F 14.0 °F 51% 29.88 in 10.0 mi NE 5.8 mph - N/A   Overcast
4:15 PM 30.2 °F 24.3 °F 14.0 °F 51% 29.87 in 10.0 mi ENE 5.8 mph - N/A   Overcast
4:35 PM 30.2 °F 25.4 °F 15.8 °F 55% 29.86 in 10.0 mi NNE 4.6 mph - N/A   Overcast
4:55 PM 30.2 °F 23.4 °F 14.0 °F 51% 29.87 in 10.0 mi NNE 6.9 mph - N/A   Overcast
5:15 PM 30.2 °F 24.3 °F 14.0 °F 51% 29.87 in 10.0 mi NE 5.8 mph - N/A   Overcast
5:35 PM 30.2 °F 25.4 °F 14.0 °F 51% 29.86 in 10.0 mi NE 4.6 mph - N/A   Overcast
5:55 PM 30.2 °F 25.4 °F 14.0 °F 51% 29.87 in 10.0 mi NNE 4.6 mph - N/A   Overcast
6:15 PM 28.4 °F 19.7 °F 15.8 °F 59% 29.87 in 5.0 mi North 9.2 mph - N/A Snow Light Snow
6:35 PM 28.4 °F 19.7 °F 15.8 °F 59% 29.87 in 10.0 mi NNE 9.2 mph - N/A   Overcast
6:55 PM 26.6 °F 19.1 °F 15.8 °F 64% 29.87 in 10.0 mi NE 6.9 mph - N/A   Overcast
7:15 PM 26.6 °F 20.0 °F 15.8 °F 64% 29.86 in 7.0 mi NE 5.8 mph 9.2 mph N/A   Overcast
7:35 PM 24.8 °F 17.9 °F 15.8 °F 69% 29.87 in 7.0 mi NNE 5.8 mph - N/A Snow Light Snow
7:55 PM 23.0 °F 13.1 °F 14.0 °F 68% 29.87 in 5.0 mi NNE 9.2 mph - N/A Snow Light Snow
8:15 PM 23.0 °F 14.7 °F 14.0 °F 68% 29.88 in 3.0 mi NE 6.9 mph - N/A Snow Light Snow
8:35 PM 23.0 °F 13.9 °F 17.6 °F 80% 29.88 in 2.0 mi NNE 8.1 mph - N/A Snow Light Snow
8:55 PM 21.2 °F 14.9 °F 17.6 °F 86% 29.88 in 1.8 mi NE 4.6 mph - N/A Snow Light Snow
9:15 PM 19.4 °F 12.8 °F 15.8 °F 86% 29.88 in 1.8 mi NE 4.6 mph - N/A Snow Light Snow
9:35 PM 19.4 °F 7.2 °F 15.8 °F 86% 29.88 in 2.0 mi NE 11.5 mph 17.3 mph N/A Snow Light Snow
9:55 PM 19.4 °F 9.5 °F 15.8 °F 86% 29.89 in 1.8 mi NE 8.1 mph - 0.01 in Snow Light Snow
10:15 PM 19.4 °F 11.5 °F 14.0 °F 80% 29.90 in 1.5 mi NNE 5.8 mph - N/A Snow Light Snow
10:35 PM 17.6 °F 10.7 °F 14.0 °F 86% 29.90 in 1.5 mi NE 4.6 mph - N/A Snow Light Snow
10:55 PM 17.6 °F 8.2 °F 14.0 °F 86% 29.89 in 1.8 mi ENE 6.9 mph - 0.01 in Snow Light Snow
11:15 PM 17.6 °F 9.3 °F 12.2 °F 79% 29.90 in 3.0 mi ENE 5.8 mph - N/A Snow Light Snow
11:35 PM 17.6 °F 9.3 °F 12.2 °F 79% 29.89 in 4.0 mi ENE 5.8 mph - N/A Snow Light Snow
11:55 PM 17.6 °F 9.3 °F 12.2 °F 79% 29.90 in 4.0 mi ENE 5.8 mph - N/A Snow Light Snow